Location: ????????
(55.7667°N, 37.4833°E)
Time: 06:23:46
(UTC+00:00)

Cosmos 2322 Rocket - Pass Details

Date: 19 May 2025
Orbit: 832 x 850 km, 71.0° (Epoch: 15 June)

Event Time Altitude Azimuth Distance (km) Brightness Sun altitude
Rises 22:51:13 0° 317° (NW) 3,416 5.7 -12.2°
Reaches altitude 10° 22:54:54 10° 293° (WNW) 2,471 4.7 -12.0°
Maximum altitude 22:57:39 14° 264° (W) 2,196 4.1 -11.8°
Enters shadow 23:00:18 10° 235° (SW) 2,441 4.1 -11.7°
